User: anonymous   Login
Location: Unspecified
(0.0000°N, 0.0000°E)
Time: 08:56:59
(UTC+00:00)
Language:

OBJECT A - Orbit

View from above orbital plane
View from above orbital plane
View from above satellite
View from above satellite

Ground track
Ground track

The orbit data is extracted from the following two-line orbital elements,

1 41783U 16059A   17204.89216587 +.00000041 +00000-0 +17345-4 0  9993
2 41783 098.1645 265.8814 0034583 047.5272 312.8844 14.62845709043960
Epoch (UTC): 23 July 2017 21:24:43
Eccentricity: 0.0034583
inclination: 98.1645°
perigee height: 659 km
apogee height: 708 km
right ascension of ascending node: 265.8814°
argument of perigee: 47.5272°
revolutions per day: 14.62845709
mean anomaly at epoch: 312.8844°
orbit number at epoch: 4396

The dashed part of the orbit path shows where the satellite is in the earth's shadow,  

DLR